Starlink 31016

operational
NORAD ID: 58548 Int'l Des: 2023-192 Owner: SPXS Country: US Constellation: starlink
LEOCIRCULAR

Starlink 31016について

説明を読み込み中...

リアルタイム位置

3D地球を読み込み中...

次回通過

高度履歴

Altitude vs Time

uPlot chart will show altitude changes over time

軌道要素

1 58548U 23192T 26035.80517145 .00000254 00000-0 20713-4 0 9992
2 58548 53.1582 215.2253 0001048 92.6443 267.4678 15.30185987120951
Epoch: Feb 4, 2026 • Age: 22 hours

現在のステータス

高度 493.6 km
速度 7.62 km/s
衛星直下点 -50.99°S, 114.2°E
打ち上げ日 Dec 8, 2023
運用期間 2.1 years
タイプ internet

技術仕様

分類 Payload
質量 730.00 kg
乾燥質量 700.00 kg
総質量 730.00 kg
長さ 0.30 m
直径 4.10 m
スパン 29.00 m
形状 Box + pan
製造者 SPXS
バスタイプ Starlink V2M
フェーズステータス In Orbit
所有者/国 SPXS/US

大規模コンステレーション

Loading constellations...